Tracking 30070 objects as of 15-Jan-2025
HD Live streaming from Space Station
objects crossing your sky now

CZ-3B DEB

Track CZ-3B DEB now!


NORAD ID: 40188
Int'l Code: 2011-077M
Perigee: 747.7 km
Apogee: 41,310.1 km
Inclination: 26.4 °
Period: 752.3 minutes
Semi major axis: 27399 km
RCS: Unknown
Launch date: December 19, 2011
Source: People's Republic of China (PRC)
Launch site: Xichang Space Center, China (XSC)

Note: This is SATELLITE DEBRIS
Your satellite tracking list
Your tracking list is empty




NASA's NSSDC Master Catalog

Two Line Element Set (TLE):
1 40188U 11077M   25015.29869221  .00000427  00000-0  25185-1 0  9994
2 40188  26.4180 115.8935 7401935 179.4984 182.2998  1.91416701 84907
Source of the keplerian elements: AFSPC